This is the latest recevied weather packets stored in our database for station/object SQ7RAF-15. If no packets are shown the sender has not sent any weather packets the latest 10 day(s).
| Time | Temp. | Humidity | Pressure | Rain* | Wind** | Luminosity | Snow |
|---|---|---|---|---|---|---|---|
| 1777823129 | 25° C | 31% | 1013.8 hPa | 0 mm | - | 60 W/m² | - |
| 1777822841 | 25° C | 31% | 1013.9 hPa | 0 mm | - | 59 W/m² | - |
| 1777822521 | 25° C | 30% | 1013.8 hPa | 0 mm | - | 62 W/m² | - |
| 1777822233 | 25° C | 30% | 1013.9 hPa | 0 mm | - | 66 W/m² | - |
| 1777821945 | 25.56° C | 31% | 1014 hPa | 0 mm | - | 50 W/m² | - |
| 1777821641 | 25.56° C | 31% | 1013.9 hPa | 0 mm | - | 52 W/m² | - |
| 1777821321 | 25.56° C | 31% | 1013.9 hPa | 0 mm | - | 45 W/m² | - |
| 1777821033 | 25.56° C | 31% | 1013.9 hPa | 0 mm | - | 55 W/m² | - |
| 1777820745 | 25.56° C | 32% | 1014 hPa | 0 mm | - | 69 W/m² | - |
| 1777820425 | 25.56° C | 32% | 1014.1 hPa | 0 mm | - | 58 W/m² | - |
| 1777820121 | 25.56° C | 32% | 1014.2 hPa | 0 mm | - | 83 W/m² | - |
| 1777819834 | 25.56° C | 32% | 1014.2 hPa | 0 mm | - | 106 W/m² | - |
| 1777819529 | 25.56° C | 31% | 1014.4 hPa | 0 mm | - | 144 W/m² | - |
| 1777819242 | 25.56° C | 31% | 1014.3 hPa | 0 mm | - | 112 W/m² | - |
| 1777818921 | 26.11° C | 30% | 1014.4 hPa | 0 mm | - | 88 W/m² | - |
| 1777818634 | 26.11° C | 30% | 1014.4 hPa | 0 mm | - | 156 W/m² | - |
| 1777818345 | 26.11° C | 30% | 1014.5 hPa | 0 mm | - | 168 W/m² | - |
| 1777818026 | 26.11° C | 30% | 1014.5 hPa | 0 mm | - | 157 W/m² | - |
| 1777817737 | 26.11° C | 30% | 1014.6 hPa | 0 mm | - | 308 W/m² | - |
| 1777817418 | 26.11° C | 29% | 1014.6 hPa | 0 mm | - | 329 W/m² | - |
| 1777817129 | 26.11° C | 29% | 1014.6 hPa | 0 mm | - | 348 W/m² | - |
| 1777816841 | 26.67° C | 28% | 1014.7 hPa | 0 mm | - | 311 W/m² | - |
| 1777816521 | 26.67° C | 28% | 1014.8 hPa | 0 mm | - | 366 W/m² | - |
| 1777816233 | 26.67° C | 28% | 1014.8 hPa | 0 mm | - | 382 W/m² | - |
| 1777815935 | 26.67° C | 28% | 1015 hPa | 0 mm | - | 286 W/m² | - |
* Rain latest hour (hover to see other rain measurements)
** Current wind speed in m/s (hover to see current wind gust speed)